Location: Gebenbach
(49.5378°N, 11.8735°E)
Time: 11:50:52
(UTC+00:00)

Cosmos 1697 Rocket - Pass Details

Date: 29 October 2020
Orbit: 831 x 845 km, 71.0° (Epoch: 24 November)

Event Time Altitude Azimuth Distance (km) Brightness Sun altitude
Rises 18:50:46 0° 229° (SW) 3,370 6.3 -28.9°
Reaches altitude 10° 18:53:19 10° 236° (SW) 2,442 5.6 -29.3°
Maximum altitude 18:58:38 43° 308° (NW) 1,159 3.7 -30.2°
Enters shadow 19:01:33 24° 5° (N) 1,658 4.3 -30.6°
